Cloud_Cover
100 100 100 100 100 100 100 74 100 100 100 100 100 100 100 98 81 29 98 100 87 100 98 59 5 3 4 5 1 5 72 73 83 100 58 5 41 69 5 5 66 36 44 5
100 100 100 100 100 100 100 100 100 100 100 100 100 100 100 100 100 84 100 100 100 88 34 99 5 5 5 3 0 5 80 65 96 9 10 96 70 6 5 74 79 5 5 5
100 100 100 100 100 100 99 100 95 100 100 100 100 100 100 100 100 99 100 98 65 90 100 100 8 4 2 23 5 38 49 73 12 74 75 59 80 37 84 66 5 5 2 0
100 100 100 100 100 100 100 100 100 85 100 97 100 100 96 98 100 100 100 100 100 100 100 99 97 100 100 68 5 56 59 7 57 68 94 76 61 73 76 5 5 5 0 0
100 100 100 100 100 99 100 100 100 100 100 100 100 100 100 100 100 100 100 100 100 100 100 100 100 100 54 5 49 36 5 51 66 47 45 74 98 18 5 4 0 0 2 5
100 100 100 100 100 100 100 82 100 100 100 100 100 100 100 100 100 100 100 100 100 100 100 100 100 100 57 38 19 9 62 78 86 56 72 42 5 5 5 1 0 5 5 5
100 100 100 100 100 100 100 100 94 98 98 100 100 100 100 100 100 100 100 100 100 100 100 97 33 15 5 12 61 62 36 16 56 21 5 5 5 4 1 5 5 5 5 4
100 100 100 100 100 100 100 100 100 100 100 100 100 100 100 100 100 100 100 99 100 90 74 90 20 25 83 26 5 32 12 7 5 5 5 5 0 4 5 5 5 5 5 5
100 98 100 98 100 100 100 100 100 100 100 100 97 72 95 94 98 96 100 100 100 100 91 89 97 100 53 57 8 5 5 5 5 5 5 5 5 5 5 5 5 5 5 5
60 98 100 100 98 100 100 100 91 24 65 23 34 16 68 100 100 100 100 100 100 97 100 100 99 93 52 63 88 71 63 7 5 5 5 5 5 5 5 4 5 5 5 5
97 99 100 100 92 36 38 57 24 98 72 53 96 80 85 70 96 100 100 100 100 100 99 100 100 100 98 100 100 93 5 5 5 5 5 5 5 5 5 5 3 5 5 5
37 94 99 59 83 57 5 58 90 73 93 100 93 100 100 98 100 100 100 100 100 100 100 100 100 100 100 100 51 5 5 27 5 5 5 5 5 5 4 5 0 5 2 5
58 63 58 10 84 46 9 95 100 100 100 100 100 100 100 100 100 100 100 100 100 100 100 100 100 100 94 6 4 5 5 5 5 5 5 5 5 5 5 5 4 0 0 5
28 40 37 71 100 100 100 100 84 71 84 96 100 100 100 100 100 100 100 100 100 100 99 67 26 5 5 5 5 17 15 6 5 5 5 4 5 5 5 2 0 0 0 0
100 100 100 100 88 100 100 100 82 83 95 100 100 100 100 100 100 100 100 100 95 47 5 25 3 3 5 5 5 44 57 5 5 4 5 5 5 5 0 0 0 0 0 0
100 100 100 100 100 85 94 100 99 100 100 100 100 100 100 100 94 100 100 50 5 5 5 5 5 43 100 92 54 18 7 5 5 5 5 5 1 0 0 0 0 0 0 2
100 100 100 100 100 100 100 100 100 100 100 100 100 95 100 100 100 100 40 5 5 8 64 96 100 100 100 19 9 5 5 5 5 5 4 0 0 4 0 0 2 5 4 5
100 100 100 100 100 100 100 100 100 100 100 79 100 100 100 100 100 90 14 5 34 87 93 96 100 74 49 46 7 5 5 5 5 0 1 4 5 1 5 5 5 5 5 5
100 100 100 100 100 100 100 100 100 100 100 100 100 100 100 94 70 32 62 75 59 61 60 72 73 47 49 5 5 5 5 5 1 5 4 5 5 5 5 5 5 5 5 5
100 100 100 100 100 100 100 100 100 100 100 100 100 100 100 98 74 65 29 17 54 83 58 48 14 30 11 6 5 5 5 5 5 5 5 5 5 5 5 5 5 33 63 46
100 100 99 99 95 96 100 100 97 93 100 100 100 100 100 96 70 27 58 98 92 64 98 55 27 45 24 5 5 5 5 5 5 5 5 5 5 5 5 5 32 76 72 95
100 83 81 91 72 90 100 98 93 100 100 100 99 95 82 91 74 82 95 89 96 100 95 83 74 23 5 5 5 5 5 5 5 5 5 5 5 5 25 58 83 87 100 95
99 100 100 100 100 100 100 100 100 100 100 96 97 91 85 74 88 98 100 100 100 100 100 100 25 5 5 5 5 5 5 5 5 5 5 5 5 5 44 84 96 74 89 100
97 97 99 96 100 100 100 100 100 100 100 100 100 100 100 100 100 100 100 100 100 100 81 7 5 5 5 16 18 5 5 5 5 5 5 40 5 48 72 83 88 89 96 93
88 98 99 100 100 100 100 99 99 98 97 98 100 100 100 100 100 100 100 100 97 31 6 5 5 5 18 11 5 5 5 5 5 36 5 15 62 84 74 74 90 100 100 79
100 100 100 98 99 97 100 100 96 99 100 100 100 100 100 100 100 100 98 52 5 5 5 5 16 29 8 5 5 5 2 5 5 5 49 52 61 62 72 80 96 98 95 100
89 100 98 95 79 67 99 100 100 100 100 100 100 100 100 100 92 22 6 5 5 5 9 5 5 5 5 5 1 2 5 5 20 36 40 53 48 68 80 93 100 100 100 100